| time (UTC) | temp F | wind direction | speed knots | gust knots | rain 1hr in | rain 24hr in | rain mn in | humidity % | barometer mb |
| 20260507211959 | 36 | 250 | 4.3 | 0.0 | 0.00 | 0.00 | 0.00 | 99 | |
| 20260507202000 | 37 | 260 | 6.1 | 0.0 | 0.00 | 0.00 | 0.00 | 99 | |
| 20260507192101 | 37 | 280 | 13.9 | 0.0 | 0.00 | 0.00 | 0.00 | 99 | |
| 20260507181957 | 39 | 260 | 7.8 | 0.0 | 0.00 | 0.00 | 0.00 | 99 | |
| 20260507171958 | 39 | 240 | 7.8 | 0.0 | 0.00 | 0.00 | 0.00 | 99 | |
| 20260507162259 | 39 | 250 | 7.8 | 0.0 | 0.00 | 0.00 | 0.00 | 99 | |
| 20260507151958 | 39 | 230 | 7.8 | 19.1 | 0.00 | 0.00 | 0.00 | 99 | |
| 20260507141959 | 41 | 260 | 10.4 | 22.6 | 0.00 | 0.00 | 0.00 | 99 | |
| 20260507132101 | 39 | 300 | 6.1 | 0.0 | 0.00 | 0.00 | 0.00 | 99 | |
| 20260507121958 | 41 | 270 | 7.8 | 17.4 | 0.00 | 0.00 | 0.00 | 99 | |
| 20260507112027 | 39 | 260 | 7.8 | 19.1 | 0.00 | 0.00 | 0.00 | 99 | |
| 20260507102158 | 39 | 220 | 13.9 | 25.2 | 0.00 | 0.00 | 0.00 | 99 | |
| 20260507091959 | 39 | 230 | 10.4 | 25.2 | 0.00 | 0.00 | 0.00 | 99 | |
| 20260507081958 | 39 | 280 | 10.4 | 22.6 | 0.00 | 0.00 | 0.00 | 99 | |
| 20260507071958 | 39 | 240 | 13.9 | 25.2 | 0.00 | 0.00 | 0.00 | 99 | |
| 20260507061958 | 39 | 240 | 12.2 | 20.9 | 0.00 | 0.00 | 0.00 | 99 | |
| 20260507051958 | 41 | 310 | 6.1 | 0.0 | 0.00 | 0.00 | 0.00 | 99 | |
| 20260507042202 | 39 | 210 | 6.1 | 0.0 | 0.00 | 0.00 | 0.00 | 99 | |
| 20260507031958 | 41 | 220 | 10.4 | 20.9 | 0.00 | 0.00 | 0.00 | 99 | |
| 20260507021957 | 41 | 250 | 7.8 | 0.0 | 0.00 | 0.00 | 0.00 | 99 | |
| 20260507012058 | 41 | 270 | 12.2 | 26.9 | 0.00 | 0.00 | 0.00 | 93 | |
| 20260507001958 | 41 | 250 | 15.6 | 25.2 | 0.00 | 0.00 | 0.00 | 99 | |
| 20260506231958 | 41 | 240 | 15.6 | 31.3 | 0.00 | 0.00 | 0.00 | 99 | |
| 20260506222214 | 43 | 280 | 25.2 | 0.0 | 0.00 | 0.00 | 0.00 | 86 |